Weather History for KCFV - May, 2014

Change the Weather History Date:

Sunday, May 25, 2014

  Actual Average Record
Temperature  
Mean Temperature 75 °F -  
Max Temperature 87 °F 77 °F 95 °F (2006)
Min Temperature 64 °F 56 °F 45 °F (2001)
Cooling Degree Days 10    
Growing Degree Days 25 (Base 50)    
Moisture  
Dew Point 66 °F    
Average Humidity 84    
Maximum Humidity 100    
Minimum Humidity 48    
Precipitation  
Precipitation 1.16 in - - ()
Sea Level Pressure  
Sea Level Pressure 29.98 in    
Wind  
Wind Speed 7 mph (South)    
Max Wind Speed 14 mph    
Max Gust Speed 28 mph    
Visibility 7 miles    
Events Rain , Thunderstorm    
Averages and records for this station are not official NWS values.
T = Trace of Precipitation, MM = Missing Value Source: NWS Daily Summary

Daily Weather History Graph

Daily Weather History Graph

Search for Another Location

Airport or City:

Trip Planner

Search our weather history database for the weather conditions in past years. The results will help you decide how hot, cold, wet, or windy it might be!

Date:

Astronomy

May. 25, 2014 Rise Set
Actual Time 6:07 AM CDT 8:31 PM CDT
Civil Twilight 5:37 AM CDT 9:01 PM CDT
Nautical Twilight 5:00 AM CDT 9:38 PM CDT
Astronomical Twilight 4:20 AM CDT 10:19 PM CDT
Moon 4:07 AM CDT (5/25) 5:37 PM CDT (5/25)
Length of Visible Light 15h 24m
Length of Day
14h 24m
Waning Crescent, 10% of the Moon is Illuminated
May 25
Waning Crescent
May 28
New
Jun 5
First Quarter
Jun 12
Full
Jun 19
Last Quarter

Hourly Weather History & Observations

Time (CDT) Temp. Heat Index Dew Point Humidity Pressure Visibility Wind Dir Wind Speed Gust Speed Precip Events Conditions
1:52 AM 68.0 °F - 64.9 °F 90% 29.98 in 8.0 mi SE 3.5 mph - N/A   Clear
2:52 AM 66.0 °F - 64.0 °F 93% 29.98 in 5.0 mi SE 4.6 mph - N/A   Clear
4:52 AM 64.0 °F - 63.0 °F 96% 29.98 in 5.0 mi Calm Calm - N/A   Clear
5:52 AM 64.0 °F - 63.0 °F 96% 29.99 in 7.0 mi SSE 4.6 mph - N/A   Clear
7:52 AM 69.1 °F - 64.9 °F 87% 30.01 in 10.0 mi SSE 9.2 mph - N/A   Overcast
8:17 AM 70.0 °F - 64.9 °F 84% 30.03 in 10.0 mi SE 6.9 mph - N/A Thunderstorm Thunderstorm
8:32 AM 71.1 °F - 64.9 °F 81% 30.04 in 10.0 mi South 6.9 mph - N/A Thunderstorm Overcast
8:52 AM 71.1 °F - 64.9 °F 81% 30.03 in 10.0 mi SSE 11.5 mph - 0.00 in Rain Light Rain
10:52 AM 73.9 °F - 66.9 °F 79% 30.01 in 10.0 mi SSE 10.4 mph - N/A   Partly Cloudy
11:52 AM 79.0 °F - 66.9 °F 66% 30.00 in 10.0 mi SSE 11.5 mph - N/A   Clear
12:52 PM 81.0 °F 83.3 °F 66.9 °F 62% 29.99 in 10.0 mi SSE 9.2 mph - N/A   Scattered Clouds
1:52 PM 84.9 °F 88.2 °F 68.0 °F 57% 29.97 in 10.0 mi SSE 12.7 mph - N/A   Mostly Cloudy
2:52 PM 86.0 °F 88.2 °F 66.0 °F 51% 29.94 in 10.0 mi SE 13.8 mph - N/A   Partly Cloudy
3:52 PM 86.0 °F 87.3 °F 64.0 °F 48% 29.91 in 10.0 mi SSE 13.8 mph 24.2 mph N/A   Partly Cloudy
4:52 PM 84.0 °F 86.3 °F 66.0 °F 55% 29.91 in 10.0 mi SSE 13.8 mph 25.3 mph N/A   Scattered Clouds
5:52 PM 82.0 °F 83.8 °F 64.9 °F 56% 29.94 in 10.0 mi South 11.5 mph - N/A   Mostly Cloudy
6:32 PM 69.1 °F - 64.0 °F 84% 29.96 in 10.0 mi West 13.8 mph 27.6 mph 0.00 in Rain , Thunderstorm Light Thunderstorms and Rain
6:52 PM 70.0 °F - 64.9 °F 84% 29.94 in 10.0 mi NW 9.2 mph - 0.00 in Thunderstorm Scattered Clouds
7:01 PM 70.0 °F - 64.9 °F 84% 29.95 in 10.0 mi NW 10.4 mph - N/A Thunderstorm Thunderstorm
7:30 PM 70.0 °F - 64.9 °F 84% 29.95 in 10.0 mi North 6.9 mph - N/A Thunderstorm Mostly Cloudy
7:52 PM 70.0 °F - 64.9 °F 84% 29.94 in 10.0 mi NNW 8.1 mph - N/A Thunderstorm Mostly Cloudy
7:59 PM 70.0 °F - 64.9 °F 84% 29.96 in 10.0 mi NW 4.6 mph - N/A Thunderstorm Thunderstorm
8:50 PM 68.0 °F - 66.2 °F 94% 29.99 in 2.5 mi SW 5.8 mph - 0.17 in Rain , Thunderstorm Thunderstorms and Rain
8:52 PM 68.0 °F - 66.9 °F 96% 29.98 in 1.5 mi WSW 4.6 mph - 0.23 in Rain , Thunderstorm Heavy Thunderstorms and Rain
9:09 PM 68.0 °F - 68.0 °F 100% 29.98 in 1.2 mi Variable 4.6 mph - 0.25 in Rain , Thunderstorm Heavy Thunderstorms and Rain
9:15 PM 68.0 °F - 68.0 °F 100% 29.99 in 2.0 mi NW 3.5 mph - 0.30 in Rain Rain
9:22 PM 68.0 °F - 68.0 °F 100% 30.00 in 1.0 mi West 3.5 mph - 0.43 in Rain , Thunderstorm Heavy Thunderstorms and Rain
9:26 PM 68.0 °F - 68.0 °F 100% 30.01 in 0.8 mi North - - 0.57 in Rain , Thunderstorm Heavy Thunderstorms and Rain
9:39 PM 64.9 °F - 64.0 °F 97% 30.00 in 1.0 mi South 5.8 mph - 0.65 in Rain , Thunderstorm Heavy Thunderstorms and Rain
9:49 PM 66.2 °F - 66.2 °F 100% 30.00 in 3.0 mi Calm Calm - 0.69 in Rain , Thunderstorm Thunderstorms and Rain
9:52 PM 66.0 °F - 66.0 °F 100% 29.99 in 4.0 mi Calm Calm - 0.70 in Rain , Thunderstorm Thunderstorms and Rain
10:25 PM 66.9 °F - 66.9 °F 100% 30.02 in 4.0 mi SSE 5.8 mph - 0.12 in Rain , Thunderstorm Rain
10:52 PM 66.9 °F - 66.9 °F 100% 30.00 in 5.0 mi Calm Calm - 0.20 in Rain Rain
11:52 PM 68.0 °F - 68.0 °F 100% 29.99 in 10.0 mi South 11.5 mph - 0.03 in Rain Light Rain